Gilze-Rijen, Netherlands

8:54 AM CET on January 16, 2018 (GMT +0100)
Gilze-Rijen Air Base

Weather History for EHGR - October, 2012

Change the Weather History Date:

Sunday, October 28, 2012

  Actual Average Record
Temperature  
Mean Temperature 37 °F -  
Max Temperature 50 °F 48 °F 68 °F (2005)
Min Temperature 24 °F 37 °F 24 °F (2003)
Degree Days  
Heating Degree Days 28    
Moisture  
Dew Point 31 °F    
Average Humidity 86    
Maximum Humidity 100    
Minimum Humidity 54    
Precipitation  
Precipitation 0.00 in - - ()
Sea Level Pressure  
Sea Level Pressure 29.98 in    
Wind  
Wind Speed 4 mph ()    
Max Wind Speed 14 mph    
Max Gust Speed -    
Visibility 5.7 miles    
Events Fog    
Averages and records for this station are not official NWS values.
T = Trace of Precipitation, MM = Missing Value Source: Averaged Metar Reports

Daily Weather History Graph

Daily Weather History Graph

Search for Another Location

Airport or City:

Trip Planner

Search our weather history database for the weather conditions in past years. The results will help you decide how hot, cold, wet, or windy it might be!

Date:

Astronomy

Oct. 28, 2012 Rise Set
Actual Time 7:27 AM CET 5:19 PM CET
Civil Twilight 6:52 AM CET 5:54 PM CET
Nautical Twilight 6:13 AM CET 6:33 PM CET
Astronomical Twilight 5:34 AM CET 7:12 PM CET
Moon 4:31 PM CET (10/28) 6:00 AM CET (10/28)
Length of Visible Light 11h 02m
Length of Day
9h 52m
Waxing Gibbous, 98% of the Moon is Illuminated
Oct 28
Waxing Gibbous
Oct 29
Full
Nov 7
Last Quarter
Nov 13
New
Nov 20
First Quarter

Hourly Weather History & Observations

Time (CET) Temp. Windchill Dew Point Humidity Pressure Visibility Wind Dir Wind Speed Gust Speed Precip Events Conditions
12:25 AM 35.6 °F 30.7 °F 32.0 °F 87% 29.98 in 6.2 mi NNW 5.8 mph - N/A   Mostly Cloudy
12:55 AM 32.0 °F 27.5 °F 30.2 °F 93% 29.98 in 6.2 mi NNW 4.6 mph - N/A   Unknown
1:25 AM 33.8 °F 30.8 °F 32.0 °F 93% 29.98 in 6.2 mi NNW 3.5 mph - N/A   Unknown
1:55 AM 32.0 °F 28.7 °F 32.0 °F 100% 29.98 in 6.2 mi NNW 3.5 mph - N/A   Unknown
2:25 AM 30.2 °F 26.7 °F 28.4 °F 93% 30.01 in 6.2 mi NNW 3.5 mph - N/A   Unknown
2:55 AM 28.4 °F 23.3 °F 28.4 °F 100% 29.98 in 6.2 mi NW 4.6 mph - N/A   Unknown
2:25 AM 32.0 °F 28.7 °F 30.2 °F 93% 30.01 in 6.2 mi NNW 3.5 mph - N/A   Unknown
2:31 AM 30.2 °F 25.4 °F 28.4 °F 93% 29.98 in - NW 4.6 mph - N/A   Mist
2:35 AM 28.4 °F 22.2 °F 26.6 °F 93% 29.98 in 0.9 mi NW 5.8 mph - N/A   Mist
2:39 AM 26.6 °F 20.0 °F 24.8 °F 93% 29.98 in 6.2 mi NW 5.8 mph - N/A   Unknown
2:55 AM 28.4 °F 24.6 °F 28.4 °F 100% 30.01 in 6.2 mi West 3.5 mph - N/A   Partly Cloudy
3:09 AM 30.2 °F - 30.2 °F 100% 30.01 in 6.2 mi West 2.3 mph - N/A   Unknown
3:25 AM 24.8 °F 19.1 °F 24.8 °F 100% 29.98 in 6.2 mi WNW 4.6 mph - N/A   Unknown
3:51 AM 28.4 °F - 28.4 °F 100% 29.98 in 0.6 mi SSW 1.2 mph - N/A Fog Light Freezing Fog
3:55 AM 30.2 °F - 30.2 °F 100% 29.98 in 6.2 mi SW 2.3 mph - N/A   Unknown
4:09 AM 26.6 °F - 26.6 °F 100% 29.98 in 6.2 mi WNW 1.2 mph - N/A   Unknown
4:13 AM 26.6 °F - 26.6 °F 100% 29.98 in 3.1 mi Calm Calm - N/A   Mist
4:17 AM 28.4 °F - 26.6 °F 93% 29.98 in - West 1.2 mph - N/A   Mist
4:25 AM 24.8 °F - 23.0 °F 93% 29.98 in - NW 1.2 mph - N/A   Mist
4:30 AM 24.8 °F - 24.8 °F 100% 29.98 in 3.7 mi Calm Calm - N/A   Mist
4:31 AM 26.6 °F - 26.6 °F 100% 29.98 in 6.2 mi ENE 1.2 mph - N/A   Unknown
4:39 AM 28.4 °F - 28.4 °F 100% 29.98 in 3.7 mi SW 1.2 mph - N/A   Mist
4:43 AM 28.4 °F - 28.4 °F 100% 29.98 in 6.2 mi SW 1.2 mph - N/A   Unknown
4:49 AM 26.6 °F - 26.6 °F 100% 29.98 in 1.5 mi WSW 1.2 mph - N/A   Mist
4:55 AM 26.6 °F - 24.8 °F 93% 29.98 in 6.2 mi WSW 1.2 mph - N/A   Unknown
5:09 AM 24.8 °F - 24.8 °F 100% 29.98 in 6.2 mi West 2.3 mph - N/A   Unknown
5:25 AM 26.6 °F - 26.6 °F 100% 29.98 in 6.2 mi West 1.2 mph - N/A   Unknown
5:29 AM 26.6 °F - 26.6 °F 100% 29.98 in 3.7 mi WNW 1.2 mph - N/A   Mist
5:33 AM 26.6 °F - 26.6 °F 100% 29.98 in 6.2 mi Calm Calm - N/A   Unknown
5:46 AM 26.6 °F - 26.6 °F 100% 29.98 in 6.2 mi SW 1.2 mph - N/A   Unknown
5:55 AM 26.6 °F - 26.6 °F 100% 29.98 in 6.2 mi WNW 2.3 mph - N/A   Unknown
6:05 AM 24.8 °F - 24.8 °F 100% 29.98 in 3.1 mi West 2.3 mph - N/A   Mist
6:09 AM 24.8 °F - 24.8 °F 100% 29.98 in 6.2 mi WSW 1.2 mph - N/A   Unknown
6:25 AM 24.8 °F - 24.8 °F 100% 29.98 in 6.2 mi South 1.2 mph - N/A   Unknown
6:35 AM 26.6 °F - 26.6 °F 100% 29.98 in 6.2 mi SSW 2.3 mph - N/A   Unknown
6:55 AM 26.6 °F - 26.6 °F 100% 29.98 in 6.2 mi South 2.3 mph - N/A   Partly Cloudy
7:25 AM 26.6 °F - 26.6 °F 100% 29.98 in 6.2 mi WNW 1.2 mph - N/A   Unknown
7:55 AM 26.6 °F 21.2 °F 26.6 °F 100% 30.01 in 6.2 mi South 4.6 mph - N/A   Partly Cloudy
8:25 AM 30.2 °F 26.7 °F 30.2 °F 100% 30.01 in 6.2 mi WSW 3.5 mph - N/A   Unknown
8:55 AM 33.8 °F 30.8 °F 32.0 °F 93% 30.01 in 6.2 mi SSW 3.5 mph - N/A   Mostly Cloudy
9:25 AM 37.4 °F 33.8 °F 35.6 °F 93% 30.01 in 6.2 mi SSW 4.6 mph - N/A   Scattered Clouds
9:55 AM 39.2 °F 35.9 °F 37.4 °F 93% 30.01 in 6.2 mi SW 4.6 mph - N/A   Mostly Cloudy
10:25 AM 42.8 °F 37.5 °F 39.2 °F 87% 30.01 in 6.2 mi South 9.2 mph - N/A   Mostly Cloudy
10:55 AM 44.6 °F 40.2 °F 37.4 °F 76% 30.01 in 6.2 mi SSW 8.1 mph - N/A   Mostly Cloudy
11:25 AM 46.4 °F 42.9 °F 39.2 °F 76% 30.01 in 6.2 mi SW 6.9 mph - N/A   Unknown
11:55 AM 48.2 °F - 39.2 °F 71% 30.01 in 6.2 mi SW 5.8 mph - N/A   Partly Cloudy
12:25 PM 48.2 °F - 35.6 °F 62% 30.01 in 6.2 mi SW 6.9 mph - N/A   Mostly Cloudy
12:55 PM 50.0 °F - 35.6 °F 58% 29.98 in 6.2 mi SW 8.1 mph - N/A   Overcast
1:25 PM 48.2 °F - 37.4 °F 66% 29.98 in 6.2 mi SSW 8.1 mph - N/A   Scattered Clouds
1:55 PM 48.2 °F - 33.8 °F 58% 29.98 in 6.2 mi SW 9.2 mph - N/A   Mostly Cloudy
2:25 PM 50.0 °F - 33.8 °F 54% 29.98 in 6.2 mi SSW 12.7 mph - N/A   Partly Cloudy
2:55 PM 50.0 °F - 33.8 °F 54% 29.95 in 6.2 mi SSW 9.2 mph - N/A   Unknown
3:25 PM 50.0 °F - 33.8 °F 54% 29.95 in 6.2 mi SW 8.1 mph - N/A   Unknown
3:55 PM 48.2 °F - 33.8 °F 58% 29.95 in 6.2 mi SW 6.9 mph - N/A   Mostly Cloudy
4:25 PM 46.4 °F 44.3 °F 35.6 °F 66% 29.95 in 6.2 mi SW 4.6 mph - N/A   Mostly Cloudy
4:55 PM 44.6 °F 41.4 °F 35.6 °F 71% 29.95 in 6.2 mi SSW 5.8 mph - N/A   Overcast
5:25 PM 44.6 °F 41.4 °F 35.6 °F 71% 29.95 in 6.2 mi SSW 5.8 mph - N/A   Overcast
5:55 PM 44.6 °F 40.7 °F 35.6 °F 71% 29.95 in 6.2 mi South 6.9 mph - N/A   Overcast
6:25 PM 44.6 °F 40.7 °F 35.6 °F 71% 29.95 in 6.2 mi South 6.9 mph - N/A   Overcast
6:55 PM 44.6 °F 40.2 °F 35.6 °F 71% 29.95 in 6.2 mi South 8.1 mph - N/A   Overcast
7:25 PM 44.6 °F 39.7 °F 35.6 °F 71% 29.95 in 6.2 mi South 9.2 mph - N/A   Overcast
7:55 PM 44.6 °F 39.7 °F 35.6 °F 71% 29.95 in 6.2 mi South 9.2 mph - N/A   Overcast
8:25 PM 44.6 °F 39.7 °F 35.6 °F 71% 29.95 in 6.2 mi South 9.2 mph - N/A   Overcast
8:55 PM 44.6 °F 38.4 °F 33.8 °F 66% 29.95 in 6.2 mi South 12.7 mph - N/A   Overcast
9:25 PM 42.8 °F 36.6 °F 33.8 °F 70% 29.95 in 6.2 mi South 11.5 mph - N/A   Light Drizzle
9:55 PM 42.8 °F 35.8 °F 33.8 °F 70% 29.95 in 6.2 mi South 13.8 mph - N/A   Overcast
10:25 PM 42.8 °F 36.2 °F 33.8 °F 70% 29.95 in 6.2 mi South 12.7 mph - N/A   Overcast
10:55 PM 44.6 °F 38.4 °F 33.8 °F 66% 29.95 in 6.2 mi South 12.7 mph - N/A   Overcast